Portsmouth, NH

8:17 PM EST on November 17, 2017 (GMT -0500)
Pease International Tradeport

Weather History for KPSM - December, 2013

Change the Weather History Date:

Monday, December 9, 2013

  Actual Average Record
Temperature  
Mean Temperature 32 °F -  
Max Temperature 39 °F 39 °F 59 °F (1987)
Min Temperature 26 °F 25 °F -5 °F (1989)
Degree Days  
Heating Degree Days 32    
Moisture  
Dew Point 30 °F    
Average Humidity 91    
Maximum Humidity 100    
Minimum Humidity 51    
Precipitation  
Precipitation 0.17 in - - ()
Sea Level Pressure  
Sea Level Pressure 30.13 in    
Wind  
Wind Speed 7 mph (NE)    
Max Wind Speed 14 mph    
Max Gust Speed 25 mph    
Visibility 4 miles    
Events Rain , Snow    
Averages and records for this station are not official NWS values.
T = Trace of Precipitation, MM = Missing Value Source: NWS Daily Summary

Daily Weather History Graph

Daily Weather History Graph

Search for Another Location

Airport or City:

Trip Planner

Search our weather history database for the weather conditions in past years. The results will help you decide how hot, cold, wet, or windy it might be!

Date:

Astronomy

Dec. 09, 2013 Rise Set
Actual Time 7:03 AM EST 4:08 PM EST
Civil Twilight 6:30 AM EST 4:40 PM EST
Nautical Twilight 5:55 AM EST 5:16 PM EST
Astronomical Twilight 5:20 AM EST 5:50 PM EST
Moon 11:45 AM EST (12/9) No Moon Set
Length of Visible Light 10h 09m
Length of Day
9h 05m
Waxing Crescent, 51% of the Moon is Illuminated
Dec 9
Waxing Crescent
Dec 17
Full
Dec 25
Last Quarter
Jan 1
New
Jan 7
First Quarter

Hourly Weather History & Observations

Time (EST) Temp. Windchill Dew Point Humidity Pressure Visibility Wind Dir Wind Speed Gust Speed Precip Events Conditions
12:58 AM 27.5 °F 23.6 °F 11.7 °F 51% 30.50 in 10.0 mi NNE 3.5 mph - N/A   Overcast
1:58 AM 27.5 °F 22.2 °F 13.6 °F 56% 30.49 in 10.0 mi NNE 4.6 mph - N/A   Overcast
2:10 AM 28.4 °F 23.3 °F 14.0 °F 55% 30.46 in 8.0 mi North 4.6 mph - N/A Snow Light Snow
2:58 AM 27.9 °F 21.5 °F 15.4 °F 60% 30.45 in 7.0 mi North 5.8 mph - 0.00 in Snow Light Snow
3:58 AM 27.9 °F - 19.0 °F 69% 30.44 in 4.0 mi WNW 2.3 mph - 0.00 in Snow Light Snow
4:11 AM 26.6 °F 21.2 °F 19.4 °F 74% 30.41 in 2.0 mi NW 4.6 mph - N/A Snow Light Snow
4:43 AM 26.6 °F 21.2 °F 24.8 °F 93% 30.40 in 2.0 mi NNW 4.6 mph - N/A Snow Light Snow
4:58 AM 27.5 °F 23.6 °F 25.7 °F 93% 30.41 in 2.5 mi East 3.5 mph - 0.00 in Snow Light Snow
5:20 AM 32.0 °F 26.4 °F 26.6 °F 80% 30.38 in 5.0 mi Variable 5.8 mph - N/A Snow Light Snow
5:39 AM 32.0 °F 24.8 °F 24.8 °F 75% 30.37 in 7.0 mi East 8.1 mph - N/A   Overcast
5:58 AM 31.8 °F 23.3 °F 24.8 °F 75% 30.38 in 7.0 mi ESE 10.4 mph - 0.00 in   Overcast
6:35 AM 32.0 °F 22.5 °F 24.8 °F 75% 30.34 in 5.0 mi East 12.7 mph - N/A Snow Light Snow
6:58 AM 32.9 °F 23.2 °F 27.1 °F 79% 30.35 in 2.5 mi East 13.8 mph - 0.00 in Snow Light Snow
7:28 AM 32.0 °F 22.1 °F 30.2 °F 93% 30.30 in 3.0 mi East 13.8 mph 25.3 mph N/A Snow Light Snow
7:58 AM 33.1 °F 24.4 °F 30.0 °F 89% 30.32 in 4.0 mi East 11.5 mph - 0.00 in Snow Light Snow
8:58 AM 33.4 °F 23.9 °F 31.5 °F 92% 30.27 in 2.0 mi East 13.8 mph 20.7 mph 0.00 in Snow Light Snow
9:13 AM 33.8 °F 24.8 °F 32.0 °F 93% 30.25 in 1.5 mi East 12.7 mph - N/A Snow Light Snow
9:58 AM 33.3 °F 25.1 °F 33.1 °F 99% 30.25 in 1.5 mi East 10.4 mph - 0.02 in Snow Light Snow
10:30 AM 33.8 °F 25.3 °F 33.8 °F 100% 30.20 in 1.5 mi East 11.5 mph - N/A Rain , Snow Light Snow
10:58 AM 33.4 °F 27.3 °F 33.3 °F 99% 30.22 in 1.5 mi East 6.9 mph - 0.06 in Rain , Snow Light Snow
11:13 AM 33.8 °F 26.4 °F 33.8 °F 100% 30.18 in 4.0 mi East 9.2 mph - N/A Rain , Snow Light Snow
11:58 AM 35.1 °F 28.6 °F 34.9 °F 99% 30.14 in 2.0 mi East 8.1 mph - 0.02 in Rain , Snow Light Rain
12:28 PM 35.6 °F 27.5 °F 35.6 °F 100% 30.08 in 3.0 mi East 11.5 mph - N/A Rain Light Rain
12:58 PM 36.3 °F 30.1 °F 36.1 °F 99% 30.08 in 3.0 mi East 8.1 mph - 0.02 in Rain Light Rain
1:13 PM 37.4 °F 32.1 °F 37.4 °F 100% 30.06 in 1.5 mi ESE 6.9 mph - N/A Rain Light Rain
1:58 PM 37.8 °F 31.8 °F 37.6 °F 99% 30.04 in 1.5 mi ESE 8.1 mph - 0.02 in Rain Light Rain
2:58 PM 38.5 °F 34.1 °F 38.3 °F 99% 30.01 in 2.0 mi East 5.8 mph - 0.01 in Rain Light Rain
3:28 PM 39.2 °F 33.6 °F 39.2 °F 100% 29.96 in 1.0 mi East 8.1 mph - N/A   Light Drizzle
3:58 PM 39.0 °F 34.0 °F 39.0 °F 100% 29.97 in 1.5 mi ENE 6.9 mph - 0.01 in   Light Drizzle
4:46 PM 39.2 °F 35.0 °F 39.2 °F 100% 29.92 in 0.8 mi North 5.8 mph - N/A   Light Drizzle
4:58 PM 39.4 °F 35.2 °F 39.4 °F 100% 29.93 in 0.8 mi NNW 5.8 mph - 0.00 in   Light Drizzle
5:58 PM 32.5 °F 25.5 °F 32.4 °F 99% 29.91 in 1.2 mi NNW 8.1 mph - 0.01 in   Light Drizzle
6:28 PM 32.0 °F 23.6 °F 32.0 °F 100% 29.88 in 2.0 mi NNW 10.4 mph - N/A   Overcast
6:43 PM 30.2 °F 21.3 °F 30.2 °F 100% 29.90 in 2.0 mi North 10.4 mph - N/A   Light Freezing Drizzle
6:58 PM 30.9 °F 22.8 °F 30.7 °F 99% 29.90 in 1.5 mi NNW 9.2 mph - 0.00 in   Light Freezing Drizzle
7:58 PM 29.5 °F 20.4 °F 29.3 °F 99% 29.88 in 2.0 mi NW 10.4 mph - 0.00 in   Light Freezing Drizzle
8:18 PM 30.2 °F 22.6 °F 28.4 °F 93% 29.87 in 2.5 mi NW 8.1 mph - N/A   Overcast
8:40 PM 28.4 °F 20.4 °F 28.4 °F 100% 29.88 in 4.0 mi NW 8.1 mph - N/A   Overcast
8:58 PM 29.3 °F 22.3 °F 29.1 °F 99% 29.88 in 6.0 mi NNW 6.9 mph - 0.00 in   Overcast
9:43 PM 30.2 °F 25.4 °F 30.2 °F 100% 29.87 in 7.0 mi NW 4.6 mph - N/A   Overcast
9:58 PM 30.0 °F - 29.8 °F 99% 29.88 in 7.0 mi West 2.3 mph - 0.00 in   Overcast
10:58 PM 30.6 °F - 30.4 °F 99% 29.88 in 7.0 mi SW 2.3 mph - N/A   Overcast
11:18 PM 32.0 °F 26.4 °F 32.0 °F 100% 29.86 in 7.0 mi SW 5.8 mph - N/A   Overcast
11:28 PM 32.0 °F 26.4 °F 32.0 °F 100% 29.86 in 7.0 mi SW 5.8 mph - N/A   Overcast
11:58 PM 32.0 °F 25.6 °F 31.6 °F 99% 29.88 in 7.0 mi SW 6.9 mph - N/A   Overcast